INSPIRATION4 DEB (49248 NORAD) Tracking and Keplerian Element Data

This shows tracking and keplerian element data for the satellite.

Feedback or suggestion? Click here.




ElementValue
Catalog49248
NameINSPIRATION4 DEB
Epoch Orbit405
Epoch Day287.68482895
Epoch Year2021
RAAN105.8985
Inclination51.6442
Eccentricity0.0006913
Argument of Perigee11.5543
Mean Anonmoly348.5612
Mean Motion15.7009906
Decay Rate0.00042696
L11 49248U 21084B 21287.68482895 .00042696 00000-0 34887-3 0 9992
L22 49248 51.6442 105.8985 0006913 11.5543 348.5612 15.70099060 4050

Live tracking and technical data element details for INSPIRATION4 DEB (NORAD 49248). INSPIRATION4 DEB can be tracked NOW for your location showing map with azimuth and elevation plus other details from your city location.

Track the satellite on the map from your city or location and see movement details for azimuth, elevation, latitude, longitude, range, height, and movement on the map or in text.







IsCatalogInMostPopularTable: catalog: 49248, numindb: 10
Update: records affected: 1



GetName: 49248 INSPIRATION4 DEB

Hit Count: updated at: Thu, 28 Oct 2021 10:28:25 GMT